Flag for U.S.A. Weather past 2 weeks in Providence, Rhode Island, U.S.A.

Now
65 °F

Passing clouds.


Feels Like: 65 °F
Forecast: 65 / 82 °F
Wind: 7 mph from Southwest

Location: Green State Airport

Current Time: Aug 31, 2014 at 12:16:07 AM

Latest Report: Aug 30, 2014 at 10:51 PM


Visibility: 10 mi

Pressure: 30.17 "Hg

Humidity: 85%

Dew point: 60 °F

Location of ProvidenceLocation

Historic Weather in Providence — Graph

°F

Providence temperature yesterday

Maximum temperature yesterday: 74 °F (at 1:51 PM)
Minimum temperature yesterday: 56 °F (at 4:51 AM)
Average temperature yesterday: 66 °F

Past Weeks' High & Low Weather Summary

 TemperatureHumidityPressure
High88 °F (Aug 25, 2:51 PM)97% (Aug 20, 4:51 AM)30.32 "Hg (Aug 20, 4:51 AM)
Low55 °F (Aug 19, 4:51 AM)36% (Aug 16, 2:51 PM)29.78 "Hg (Aug 17, 3:51 PM)
Average69 °F68%30.03 "Hg
* Reported Aug 15 10:51 PM — Aug 30 10:51 PM, Providence, Weather by CustomWeather, © 2014

Note: Actual official high and low records may vary slightly from our data, if they occured in-between our weather recording intervals... More about our weather records

Advertising

Providence weather history for previous 24 hours

 ConditionsComfort  
Time TempWeatherWind HumidityBarometerVisibility
10:51 PM
Aug 30
65 °FPassing clouds.7 mph85%30.17 "Hg10 mi
9:51 PM65 °FPassing clouds.7 mph81%30.19 "Hg10 mi
8:51 PM66 °FPassing clouds.8 mph78%30.19 "Hg10 mi
7:51 PM67 °FPassing clouds.7 mph71%30.19 "Hg10 mi
6:51 PM70 °FPassing clouds.12 mph68%30.19 "Hg10 mi
5:51 PM73 °FPassing clouds.15 mph62%30.19 "Hg10 mi
4:51 PM74 °FPassing clouds.14 mph57%30.20 "Hg10 mi
3:51 PM73 °FPassing clouds.16 mph62%30.22 "Hg10 mi
2:51 PM73 °FPassing clouds.17 mph59%30.23 "Hg10 mi
1:51 PM74 °FScattered clouds.15 mph60%30.25 "Hg10 mi
12:51 PM72 °FScattered clouds.14 mph61%30.27 "Hg10 mi
11:51 AM72 °FScattered clouds.10 mph64%30.29 "Hg10 mi
10:51 AM71 °FScattered clouds.7 mph61%30.30 "Hg10 mi
9:51 AM69 °FPassing clouds.12 mph66%30.30 "Hg10 mi
8:51 AM66 °FPassing clouds.8 mph75%30.32 "Hg10 mi
7:51 AM60 °FScattered clouds.No wind86%30.32 "Hg10 mi
6:51 AM56 °FPassing clouds.No wind90%30.32 "Hg10 mi
5:51 AM56 °FPassing clouds.No wind90%30.31 "Hg10 mi
4:51 AM56 °FClear.3 mph93%30.29 "Hg10 mi
3:51 AM57 °FClear.3 mph90%30.29 "Hg10 mi
2:51 AM57 °FClear.No wind90%30.29 "Hg10 mi
1:51 AM59 °FClear.3 mph90%30.29 "Hg10 mi
12:51 AM60 °FClear.5 mph86%30.29 "Hg10 mi
Weather by CustomWeather, © 2014

See weather overviewHow to use our weather pages